Location: La Trinit�
(48.1620°N, 3.4512°W)
Time: 07:30:11
(UTC+00:00)

Cosmos 1833 Rocket - Pass Details

Date: 08 May 2021
Orbit: 831 x 841 km, 71.0° (Epoch: 12 June)

Event Time Altitude Azimuth Distance (km) Brightness Sun altitude
Rises 20:00:32 0° 337° (NNW) 3,407 6.9 -4.2°
Reaches altitude 10° 20:03:44 10° 355° (N) 2,470 5.7 -4.6°
Maximum altitude 20:07:43 19° 40° (NE) 1,897 4.5 -5.2°
Drops below altitude 10° 20:11:42 10° 85° (E) 2,462 4.7 -5.7°
Enters shadow 20:13:43 - 97° (E) 3,028 5.0 -6.0°
